Flag for Thailand Weather past 2 weeks in Khon Kaen, Thailand

Now
77 °F

Partly cloudy.


Feels Like: 78 °F
Forecast: 75 / 85 °F
Wind: 3 mph from South

Location: Khon Kaen Airport

Current Time: Aug 2, 2015 at 12:11:31 AM

Latest Report: Aug 1, 2015 at 10:00 PM


Visibility: N/A

Pressure: 29.83 "Hg

Humidity: 89%

Dew point: 73 °F

Location of Khon KaenLocation

Historic Weather in Khon Kaen — Graph

°F

Khon Kaen temperature yesterday

Maximum temperature yesterday: 81 °F (at 2:00 PM)
Minimum temperature yesterday: 75 °F (at 5:00 AM)
Average temperature yesterday: 77 °F

Past Weeks' High & Low Weather Summary

 TemperatureHumidityPressure
High90 °F (Jul 18, 12:00 PM)100% (Jul 23, 4:00 PM)29.89 "Hg (Jul 23, 4:00 PM)
Low48 °F (Jul 23, 4:00 PM)59% (Jul 18, 12:00 PM)29.62 "Hg (Jul 18, 3:00 PM)
Average80 °F80%29.81 "Hg
* Reported Jul 18 6:00 AM — Aug 1 10:00 PM, Khon Kaen, Weather by CustomWeather, © 2015

Note: Actual official high and low records may vary slightly from our data, if they occured in-between our weather recording intervals... More about our weather records

Advertising

Khon Kaen weather history for previous 24 hours

 ConditionsComfort  
Time TempWeatherWind HumidityBarometerVisibility
10:00 PM
Sat, Aug 1
77 °FPartly cloudy.3 mph89%29.83 "HgN/A
8:00 PM77 °FLight rain. Mostly cloudy.3 mph89%29.80 "HgN/A
7:00 PM79 °FPartly cloudy.3 mph84%29.77 "HgN/A
6:00 PM79 °FBroken clouds.5 mph84%29.74 "HgN/A
5:00 PM81 °FBroken clouds.3 mph79%29.74 "HgN/A
3:00 PM81 °FPartly sunny.5 mph79%29.80 "HgN/A
2:00 PM81 °FMostly cloudy.6 mph79%29.80 "HgN/A
1:00 PM79 °FLight rain. More clouds than sun.7 mph84%29.83 "HgN/A
12:00 PM77 °FLight rain. Mostly cloudy.5 mph89%29.86 "HgN/A
11:00 AM75 °FLight rain. Mostly cloudy.3 mph94%29.86 "HgN/A
10:00 AM75 °FLight rain. Mostly cloudy.3 mph94%29.86 "Hg5 mi
9:00 AM75 °FLight rain. Mostly cloudy.2 mph94%29.86 "Hg4 mi
8:00 AM75 °FLight rain. Mostly cloudy.2 mph94%29.86 "Hg4 mi
7:00 AM75 °FLight rain. Mostly cloudy.No wind94%29.83 "Hg4 mi
6:00 AM75 °FLight rain. Mostly cloudy.2 mph94%29.83 "Hg3 mi
5:00 AM75 °FLight rain. Mostly cloudy.2 mph94%29.83 "Hg4 mi
3:00 AM77 °FPartly cloudy.3 mph89%29.80 "HgN/A
1:00 AM77 °FPassing clouds.3 mph89%29.83 "HgN/A
12:00 AM77 °FPassing clouds.2 mph89%29.86 "HgN/A
Weather by CustomWeather, © 2015

See weather overviewHow to use our weather pages